Regional Weather Roundup
Issued by NWS Sioux Falls, SD

Home | Current Version | Previous Version | Text Only | Print | Product List | Glossary Off
Versions: 1 2 3 4 5 6 7 8 9 10 11 12 13 14 15 16 17 18 19 20 21 22 23 24 25 26 27 28 29 30 31 32 33 34 35 36 37 38 39 40 41 42 43 44 45 46 47 48 49 50

054
ASUS43 KFSD 200110
RWRFSD

WEATHER ROUNDUP FOR SE SOUTH DAKOTA/SW MINNESOTA/NW IOWA
NATIONAL WEATHER SERVICE SIOUX FALLS SD
800 PM CDT THU APR 19 2018

NOTE: "FAIR" INDICATES FEW OR NO CLOUDS BELOW 12,000 FEET WITH NO
SIGNIFICANT WEATHER AND OR OBSTRUCTIONS TO VISIBILITY.


SDZ038>040-050-052>070-200200-
SOUTHEAST SOUTH DAKOTA

CITY           SKY/WX    TMP DP  RH WIND       PRES   REMARKS
BROOKINGS      CLOUDY    42  26  53 SE7       30.41S
CHAMBERLAIN    MOCLDY    43  29  59 SE9       30.35S
HURON          MOCLDY    43  28  55 SE7       30.39S
MADISON        FAIR      37  37 100 SE8       30.41S
MITCHELL       PTCLDY    38  30  73 E8        30.39F
SIOUX FALLS    CLOUDY    40  29  64 E8        30.42R
WINNER         FAIR      40  30  67 E16       30.31S
YANKTON        CLEAR     44  36  73 E12       30.39S
$$

MNZ071-072-080-081-089-090-097-098-200200-
SOUTHWEST MINNESOTA

CITY           SKY/WX    TMP DP  RH WIND       PRES   REMARKS
FAIRMONT       CLOUDY    35  21  56 CALM      30.47F
JACKSON        CLOUDY    36  21  55 CALM      30.46S
LUVERNE        CLEAR     34  30  86 E3        30.44S
MARSHALL       CLEAR     41  27  57 S6        30.44F
MONTEVIDEO     CLEAR     43  27  52 SW6       30.44S
PIPESTONE      CLOUDY   N/A N/A N/A SE5       30.41F
REDWOOD FALLS  CLOUDY    38  27  64 S6        30.45F
TRACY          CLEAR     40  29  66 S3        30.43F
WINDOM         CLOUDY    37  18  44 CALM      30.45F
WORTHINGTON    CLOUDY    34  26  72 E5        30.44F WCI  30
$$

IAZ001>003-012>014-020>022-031-032-NEZ013-014-SDZ071-200200-
NORTHWEST IOWA

CITY           SKY/WX    TMP DP  RH WIND       PRES   REMARKS
CHEROKEE       CLOUDY    34  24  68 NE5       30.43F WCI  30
DENISON        CLEAR     46  32  57 E9        30.42S
ESTHERVILLE    CLOUDY    32  24  72 CALM      30.45F
LE MARS        CLOUDY    39  25  56 NE10      30.42F
ORANGE CITY    CLOUDY    37  30  75 E6        30.43S
SHELDON        CLEAR     36  30  80 E8        30.41F
SIOUX CITY     CLOUDY    43  30  60 E13       30.40S
SPENCER        CLOUDY    35  23  61 E5        30.44F
STORM LAKE     CLOUDY    34  25  69 NE10      30.43F WCI  26
$$

ABBREVIATIONS USED IN REMARKS
   TC - TEMPERATURE IN CELSIUS
  WCI - WIND CHILL INDEX
   HX - HEAT INDEX
  VSB - VISIBILITY





USA.gov is the U.S. government's official web portal to all federal, state and local government web resources and services.